Hourly Data Report for October 05, 2020

SHEARWATER RCS
NOVA SCOTIA
Current Station Operator: ECCC - MSC

44°37'47.000" N
63°30'48.000" W
24.00 m
8205092
71264
AAW

Download Data

Hourly Data (October 2020)
Hourly Data Report for October 5, 2020
TIME Temp Definition
°C
Dew Point Definition
°C
Rel Hum Definition
%
Wind Dir Definition
10's deg

Wind Spd Definition
km/h
Visibility Definition
km
Stn Press Definition
kPa
Hmdx Definition


Wind Chill Definition


Weather Definition


00:00 11.1 9.2 88 5 8   102.12     LegendNANA
01:00 10.9 8.8 87 5 5   102.07     LegendNANA
02:00 10.5 8.4 87 5 9   102.06     LegendNANA
03:00 10.5 8.6 88 4 6   102.00     LegendNANA
04:00 10.8 8.7 87 1 4   101.97     LegendNANA
05:00 11.0 8.5 85 3 4   101.96     LegendNANA
06:00 11.2 8.7 85 3 6   101.93     LegendNANA
07:00 11.2 9.1 87 3 7   101.91     LegendNANA
08:00 12.6 11.5 93 16 8   101.92     LegendNANA
09:00 12.9 11.4 90 16 12   101.87     LegendNANA
10:00 13.0 10.3 84 14 12   101.87     LegendNANA
11:00 13.6 11.2 85 15 11   101.82     LegendNANA
12:00 13.4 11.4 88 13 6   101.80     LegendNANA
13:00 12.5 11.6 94 9 6   101.78     LegendNANA
14:00 12.8 11.3 91 6 9   101.74     LegendNANA
15:00 13.1 10.9 86 14 8   101.73     LegendNANA
16:00 13.5 10.6 83 11 8   101.70     LegendNANA
17:00 12.7 9.8 83 9 4   101.77     LegendNANA
18:00 12.0 10.4 90 8 4   101.78     LegendNANA
19:00 11.1 9.6 91 5 7   101.81     LegendNANA
20:00 10.5 9.6 94 4 6   101.87     LegendNANA
21:00 10.3 9.4 94 3 4   101.91     LegendNANA
22:00 9.9 9.2 95 4 5   101.92     LegendNANA
23:00 9.6 8.5 93 4 5   101.91     LegendNANA

Notes on Data Quality.

Legend

  • E = Estimated
  • M = Missing
  • NA = Not Available*
  • [empty] = Indicates an unobserved value
Date modified: